Home > Weather > Ghent > Past weeks

Flag for Belgium Weather for the Past 2 Weeks in Ghent, Belgium

Now
42 °F

Quite cool.


Feels Like: 38 °F
Forecast: 37 / 45 °F
Wind: 6 mph from West

Location: Munte

Current Time: Feb 10, 2016 at 10:34:57 AM

Latest Report: Feb 10, 2016 at 10:00 AM


Visibility: 13 mi

Pressure: 29.32 "Hg

Humidity: 85%

Dew point: 38 °F

Location of GhentLocation

Historic Weather in Ghent — Graph

°F

Ghent Temperature Yesterday

Maximum temperature yesterday: 45 °F (at 12:00 AM)
Minimum temperature yesterday: 36 °F (at 3:00 PM)
Average temperature yesterday: 40 °F

High & Low Weather Summary for the Past Weeks

 TemperatureHumidityPressure
High54 °F (Jan 31, 10:00 PM)100% (Feb 5, 7:00 AM)30.35 "Hg (Feb 5, 7:00 AM)
Low36 °F (Feb 9, 3:00 PM)54% (Jan 28, 4:00 PM)29.00 "Hg (Feb 9, 12:00 PM)
Average46 °F84%29.89 "Hg
* Reported Jan 26 9:00 AM — Feb 10 9:00 AM, Ghent, Weather by CustomWeather, © 2016

Note: Actual official high and low records may vary slightly from our data, if they occured in-between our weather recording intervals... More about our weather records

Advertising

Ghent Weather History for the Previous 24 Hours

 ConditionsComfort  
Time TempWeatherWind HumidityBarometerVisibility
9:00 AM
Wed, Feb 10
39 °FChilly.5 mph94%29.32 "Hg12 mi
8:00 AM38 °FLight rain. Overcast.5 mph96%29.29 "Hg8 mi
7:00 AM38 °FChilly.6 mph93%29.29 "Hg12 mi
5:00 AM37 °FChilly.6 mph93%29.26 "Hg12 mi
4:00 AM38 °FChilly.7 mph93%29.26 "Hg12 mi
3:00 AM37 °FLight rain. Overcast.8 mph93%29.26 "Hg7 mi
1:00 AM38 °FLight rain. Overcast.6 mph92%29.26 "Hg12 mi
12:00 AM38 °FChilly.6 mph89%29.23 "Hg12 mi
11:00 PM
Tue, Feb 9
38 °FChilly.5 mph86%29.23 "Hg12 mi
10:00 PM38 °FChilly.5 mph86%29.23 "Hg12 mi
9:00 PM38 °FChilly.5 mph85%29.21 "Hg12 mi
8:00 PM39 °FChilly.5 mph89%29.18 "Hg12 mi
7:00 PM40 °FChilly.5 mph93%29.15 "Hg12 mi
6:00 PM39 °FChilly.3 mph93%29.12 "Hg12 mi
5:00 PM39 °FChilly.3 mph97%29.09 "Hg12 mi
4:00 PM37 °FChilly.2 mph97%29.03 "Hg12 mi
3:00 PM36 °FLight rain. Cloudy.6 mph99%29.00 "Hg3 mi
12:00 PM40 °FLight rain. Cloudy.3 mph92%29.00 "Hg9 mi
Weather by CustomWeather, © 2016

See weather overviewHow to use our weather pages